Date String (YYYY-MM-DD hh:mm:ss) UTC,Instrument flags,Ambient pressure (hPa),Sample flow (lpm),Bypass flow (lpm),Sample temperature (°C),Ambient temperature (°C),ASC tube jacket temperature (°C),LED temperature (°C),Box temperature (°C),Sample RH (%),Span deviation,Mass concentration (μg/m³),Mass concentration (μg/m³),Mass concentration (μg/m³)
DateTimeUTC,F1_M11,P_M11,Q1_M11,Q2_M11,T1_M11,T2_M11,T3_M11,T4_M11,T5_M11,U1_M11,ZSPAN_M11,X0_M11,X2_M11,X1_M11
2022-07-16 17:00:00,,0829.9,5.00,0.00,29.5,28.0,00.0,38.3,31.4,32.4,0000.0,0008.89,0003.98,0003.61
2022-07-16 17:01:00,,0829.8,5.00,0.00,29.6,28.2,00.0,38.3,31.4,31.5,0000.0,0009.23,0003.99,0003.60
2022-07-16 17:02:00,,0829.9,5.01,0.00,29.6,28.3,00.0,38.3,31.5,31.5,0000.0,0009.43,0003.95,0003.57
2022-07-16 17:03:00,,0829.9,4.99,0.00,29.6,28.2,00.0,38.3,31.6,30.9,0000.0,0009.65,0003.92,0003.55
2022-07-16 17:04:00,,0829.9,5.01,0.00,29.6,27.6,00.0,38.2,31.5,30.3,0000.0,0010.39,0003.92,0003.55
2022-07-16 17:05:00,,0829.9,5.00,0.00,29.6,27.3,00.0,38.2,31.4,29.7,0000.0,0011.18,0003.93,0003.54
2022-07-16 17:06:00,,0829.9,4.99,0.00,29.5,27.4,00.0,38.2,31.3,29.9,0000.0,0010.97,0003.93,0003.53
2022-07-16 17:07:00,,0829.9,5.01,0.00,29.5,27.5,00.0,38.2,31.3,30.8,0000.0,0011.11,0003.92,0003.53
2022-07-16 17:08:00,,0829.9,5.00,0.00,29.5,27.7,00.0,38.2,31.3,31.5,0000.0,0010.63,0003.95,0003.53
2022-07-16 17:09:00,,0829.9,5.00,0.00,29.5,27.9,00.0,38.2,31.3,32.5,0000.0,0010.58,0003.95,0003.54
2022-07-16 17:10:00,,0830.0,4.99,0.00,29.5,28.1,00.0,38.2,31.4,31.6,0000.0,0010.57,0003.97,0003.54
2022-07-16 17:11:00,,0829.9,5.01,0.00,29.6,28.2,00.0,38.3,31.5,31.0,0000.0,0010.50,0003.93,0003.52
2022-07-16 17:12:00,,0829.9,4.99,0.00,29.6,28.1,00.0,38.2,31.5,30.8,0000.0,0010.57,0003.90,0003.52
2022-07-16 17:13:00,,0829.9,5.01,0.00,29.6,27.6,00.0,38.2,31.5,30.9,0000.0,0010.29,0003.97,0003.56
2022-07-16 17:14:00,,0829.9,5.00,0.00,29.6,27.3,00.0,38.1,31.4,31.0,0000.0,0010.12,0003.98,0003.58
2022-07-16 17:15:00,,0829.9,5.00,0.00,29.5,27.3,00.0,38.2,31.3,30.8,0000.0,0009.35,0003.99,0003.60
2022-07-16 17:16:00,,0829.9,5.00,0.00,29.5,27.4,00.0,38.2,31.2,31.0,0000.0,0008.42,0004.03,0003.64
2022-07-16 17:17:00,,0829.9,4.99,0.00,29.5,27.6,00.0,38.2,31.3,30.9,0000.0,0008.12,0004.08,0003.67
2022-07-16 17:18:00,,0829.9,5.01,0.00,29.5,27.8,00.0,38.2,31.3,31.1,0000.0,0008.06,0004.10,0003.70
2022-07-16 17:19:00,,0830.0,5.00,0.00,29.5,28.0,00.0,38.2,31.4,31.0,0000.0,0008.27,0004.16,0003.73
2022-07-16 17:20:00,,0830.0,5.00,0.00,29.5,28.2,00.0,38.2,31.4,31.3,0000.0,0008.69,0004.22,0003.76
2022-07-16 17:21:00,,0829.8,5.00,0.00,29.5,28.3,00.0,38.2,31.5,31.9,0000.0,0008.98,0004.28,0003.81
2022-07-16 17:22:00,,0829.9,5.00,0.00,29.6,27.9,00.0,38.2,31.5,32.1,0000.0,0009.66,0004.35,0003.87
2022-07-16 17:23:00,,0829.9,5.00,0.00,29.5,27.4,00.0,38.1,31.4,31.5,0000.0,0009.57,0004.41,0003.92
2022-07-16 17:24:00,,0829.9,5.00,0.00,29.5,27.3,00.0,38.1,31.4,32.4,0000.0,0009.76,0004.46,0003.97
2022-07-16 17:25:00,,0829.9,5.00,0.00,29.5,27.4,00.0,38.2,31.3,32.3,0000.0,0010.32,0004.56,0004.04
2022-07-16 17:26:00,,0829.9,5.01,0.00,29.5,27.5,00.0,38.2,31.3,31.8,0000.0,0010.34,0004.61,0004.11
2022-07-16 17:27:00,,0829.9,5.00,0.00,29.5,27.7,00.0,38.2,31.3,32.3,0000.0,0010.14,0004.67,0004.18
2022-07-16 17:28:00,,0829.9,4.99,0.00,29.5,27.9,00.0,38.2,31.3,31.8,0000.0,0010.26,0004.74,0004.24
2022-07-16 17:29:00,,0829.8,5.02,0.00,29.5,28.1,00.0,38.2,31.4,31.7,0000.0,0010.32,0004.81,0004.29
2022-07-16 17:30:00,,0829.9,4.99,0.00,29.5,28.1,00.0,38.2,31.5,31.7,0000.0,0009.63,0004.79,0004.31
2022-07-16 17:31:00,,0829.9,5.00,0.00,29.5,27.6,00.0,38.1,31.4,31.3,0000.0,0009.69,0004.77,0004.31
2022-07-16 17:32:00,,0829.9,5.00,0.00,29.5,27.2,00.0,38.1,31.3,31.2,0000.0,0009.35,0004.72,0004.29
2022-07-16 17:33:00,,0829.9,5.00,0.00,29.5,27.2,00.0,38.1,31.2,31.2,0000.0,0008.93,0004.65,0004.24
2022-07-16 17:34:00,,0829.9,5.00,0.00,29.4,27.3,00.0,38.1,31.2,31.8,0000.0,0009.28,0004.62,0004.22
2022-07-16 17:35:00,,0829.8,5.00,0.00,29.4,27.5,00.0,38.1,31.2,32.3,0000.0,0009.11,0004.60,0004.19
2022-07-16 17:36:00,,0829.9,4.99,0.00,29.4,27.7,00.0,38.1,31.2,32.1,0000.0,0008.66,0004.56,0004.16
2022-07-16 17:37:00,,0829.9,5.00,0.00,29.4,27.9,00.0,38.1,31.3,32.5,0000.0,0009.10,0004.56,0004.13
2022-07-16 17:38:00,,0829.8,5.00,0.00,29.4,28.1,00.0,38.1,31.4,32.8,0000.0,0009.38,0004.54,0004.11
2022-07-16 17:39:00,,0829.8,5.00,0.00,29.5,28.2,00.0,38.2,31.4,33.0,0000.0,0009.52,0004.53,0004.10
2022-07-16 17:40:00,,0829.8,5.00,0.00,29.5,27.9,00.0,38.1,31.4,32.7,0000.0,0009.93,0004.55,0004.09
2022-07-16 17:41:00,,0829.8,5.00,0.00,29.5,27.5,00.0,38.1,31.4,32.5,0000.0,0010.40,0004.61,0004.09
2022-07-16 17:42:00,,0829.8,5.00,0.00,29.5,27.3,00.0,38.1,31.3,32.1,0000.0,0010.00,0004.62,0004.09
2022-07-16 17:43:00,,0829.8,5.00,0.00,29.4,27.3,00.0,38.1,31.2,32.1,0000.0,0009.93,0004.59,0004.07
2022-07-16 17:44:00,,0829.9,5.00,0.00,29.4,27.5,00.0,38.1,31.2,31.5,0000.0,0009.74,0004.57,0004.06
2022-07-16 17:45:00,,0829.9,5.00,0.00,29.4,27.6,00.0,38.1,31.2,31.7,0000.0,0009.05,0004.54,0004.05
2022-07-16 17:46:00,,0829.9,4.99,0.00,29.4,27.8,00.0,38.1,31.3,31.7,0000.0,0008.88,0004.47,0004.02
2022-07-16 17:47:00,,0829.9,5.01,0.00,29.4,28.0,00.0,38.1,31.3,32.3,0000.0,0008.91,0004.47,0004.01
2022-07-16 17:48:00,,0829.9,5.00,0.00,29.4,27.7,00.0,38.1,31.3,33.0,0000.0,0008.64,0004.51,0004.03
2022-07-16 17:49:00,,0829.9,5.00,0.00,29.4,27.2,00.0,38.0,31.3,33.5,0000.0,0008.39,0004.51,0004.05
2022-07-16 17:50:00,,0829.8,5.00,0.00,29.4,27.0,00.0,38.0,31.2,33.5,0000.0,0008.25,0004.51,0004.06
2022-07-16 17:51:00,,0829.8,5.00,0.00,29.3,27.1,00.0,38.0,31.1,33.6,0000.0,0008.01,0004.51,0004.08
2022-07-16 17:52:00,,0829.8,5.01,0.00,29.3,27.3,00.0,38.0,31.1,33.3,0000.0,0007.47,0004.49,0004.10
2022-07-16 17:53:00,,0829.9,5.00,0.00,29.3,27.5,00.0,38.0,31.1,32.6,0000.0,0007.61,0004.52,0004.11
2022-07-16 17:54:00,,0829.9,4.99,0.00,29.3,27.7,00.0,38.0,31.2,32.4,0000.0,0008.01,0004.58,0004.14
2022-07-16 17:55:00,,0829.9,5.00,0.00,29.3,27.9,00.0,38.0,31.2,31.9,0000.0,0008.17,0004.65,0004.18
2022-07-16 17:56:00,,0829.9,5.02,0.00,29.4,27.9,00.0,38.0,31.3,32.9,0000.0,0008.38,0004.74,0004.22
2022-07-16 17:57:00,,0829.9,4.99,0.00,29.4,27.5,00.0,38.0,31.3,33.8,0000.0,0010.02,0004.84,0004.29
2022-07-16 17:58:00,,0829.9,5.00,0.00,29.4,27.1,00.0,37.9,31.2,34.1,0000.0,0010.40,0004.90,0004.35
2022-07-16 17:59:00,,0829.8,5.01,0.00,29.3,27.1,00.0,37.9,31.1,33.7,0000.0,0011.22,0004.94,0004.37
